Location: Carnetin
(48.9010°N, 2.7059°E)
Time: 04:56:59
(UTC+00:00)

USA 229 - Pass Details

Date: 06 June 2022
Orbit: 938 x 1274 km, 63.4° (Epoch: 24 May)

Event Time Altitude Azimuth Distance (km) Brightness Sun altitude
Rises 21:35:16 0° 317° (NW) 3,954 8.5 -12.5°
Reaches altitude 10° 21:37:53 10° 316° (NW) 3,039 7.4 -12.7°
Maximum altitude 21:45:11 74° 233° (SW) 1,250 4.0 -13.3°
Enters shadow 21:51:15 18° 152° (SSE) 2,643 5.1 -13.8°
